Voltar ao catálogo

METEOR 2-8 DEB

AtivoPO
NORAD 36858·DEBRIS·🇷🇺 Russia

Lançado Mar 25, 1982 de Plesetsk Cosmodrome

Loading…

Próximas Passagens (próximas 24 horas)

TLE

AtualizadoSource: Space-Track

Época: Sep 13, 2026, 10:38 UTC

1 36858U 82025AV  26256.44355976  .00003781  00000-0  15781-2 0  9994
2 36858  82.5165 146.5416 0043734 317.1210  42.6565 14.25496113 55736

Acompanhe METEOR 2-8 DEB em tempo real com AllMySat

Download on the App Store